Tracking 18032 objects as of 27-March-2017
HD Live streaming from Space Station
objects crossing your sky now

ARIANE 5 R/B

Track ARIANE 5 R/B now!


NORAD ID: 29275
Int'l Code: 2006-033D
Perigee: 277.2 km
Apogee: 33,277.3 km
Inclination: 5.9 °
Period: 584.2 minutes
Semi major axis: 23148 km
RCS: 37.7588 m2 (large)
Launch date: August 11, 2006
Source: France (FR)
Launch site: FRENCH GUIANA (FRGUI)

Note: This is a ROCKET BODY
Your satellite tracking list
Your tracking list is empty





NASA's NSSDC Master Catalog

Two Line Element Set (TLE):
1 29275U 06033D   17083.83811018 +.00000913 +00000-0 +38348-3 0  9998
2 29275 005.9282 244.7138 7127987 252.4485 023.5038 02.46505341091790
Source of the keplerian elements: AFSPC